Location: Sweet Grass
(48.9965°N, 111.9649°W)
Time: 07:25:08
(UTC+00:00)

ESTCUBE 1 - Visible Passes

Search period start: 01 April 2023 00:00
Search period end: 11 April 2023 00:00
Orbit: 642 x 655 km, 97.9° (Epoch: 01 April)

Date Brightness Start Highest point End Pass type
(mag) Time Alt. Az. Time Alt. Az. Time Alt. Az.
01 Apr ? 04:35:00 34° NE 04:35:00 34° NE 04:38:26 10° N visible
01 Apr ? 06:12:45 22° WNW 06:12:45 22° WNW 06:14:57 10° NW visible
02 Apr ? 05:01:13 48° NNE 05:01:13 48° NNE 05:04:41 10° N visible
02 Apr ? 06:38:58 14° WNW 06:38:58 14° WNW 06:40:12 10° NW visible
03 Apr ? 03:49:41 16° ENE 03:50:03 16° ENE 03:52:50 10° NNE visible
03 Apr ? 05:27:26 47° NNW 05:27:26 47° NNW 05:30:44 10° NNW visible
04 Apr ? 04:15:53 26° ENE 04:15:53 26° ENE 04:19:32 10° N visible
04 Apr ? 05:53:38 33° WNW 05:53:38 33° WNW 05:56:36 10° NNW visible
05 Apr ? 04:42:05 41° NE 04:42:05 41° NE 04:45:55 10° N visible
05 Apr ? 06:19:50 21° WNW 06:19:50 21° WNW 06:22:11 10° NW visible
06 Apr ? 03:30:32 11° ENE 03:31:39 12° NE 03:33:10 10° NE visible
06 Apr ? 05:08:16 60° NNE 05:08:16 60° NNE 05:12:05 10° N visible
06 Apr ? 06:46:01 13° WNW 06:46:01 13° WNW 06:47:10 10° NW visible
07 Apr ? 03:56:43 18° ENE 03:57:19 19° ENE 04:00:25 10° NNE visible
07 Apr ? 05:34:27 50° NW 05:34:27 50° NW 05:38:03 10° NNW visible
08 Apr ? 04:22:54 30° ENE 04:23:04 30° ENE 04:26:59 10° N visible
08 Apr ? 06:00:38 32° WNW 06:00:38 32° WNW 06:03:49 10° NNW visible
09 Apr ? 04:49:04 50° ENE 04:49:04 50° ENE 04:53:15 10° N visible
09 Apr ? 06:26:49 19° WNW 06:26:49 19° WNW 06:29:15 10° NW visible
10 Apr ? 03:37:29 12° ENE 03:38:49 13° ENE 03:40:56 10° NNE visible
10 Apr ? 05:15:14 73° N 05:15:14 73° N 05:19:21 10° NNW visible
10 Apr ? 06:52:59 11° WNW 06:52:59 11° WNW 06:53:50 10° WNW visible
